Location: Dead Woman Crossing
(43.5369°N, 106.3228°W)
Time: 15:22:34
(UTC+00:00)

ITUPSAT 1 - Pass Details

Date: 05 July 2022
Orbit: 701 x 711 km, 98.6° (Epoch: 13 August)

Event Time Altitude Azimuth Distance (km) Brightness Sun altitude
Rises 04:02:21 0° 8° (N) 3,112 ? -11.0°
Reaches altitude 10° 04:04:40 10° 3° (N) 2,191 ? -11.2°
Maximum altitude 04:09:18 50° 289° (WNW) 904 ? -11.8°
Drops below altitude 10° 04:13:54 10° 215° (SW) 2,180 ? -12.4°
Sets 04:16:12 0° 210° (SSW) 3,096 ? -12.6°
